CW9854 Weather Reports


Display with metric or nautical units.
time (UTC)temp
F
wind
direction
speed
MPH
gust
MPH
rain 1hr
in
rain 24hr
in
rain mn
in
humidity
%
barometer
mb
20260510112503 44 157 1.0 2.0 0.00 0.13 0.04 88 1012.8
20260510112003 44 157 0.0 2.0 0.00 0.13 0.04 89 1012.7
20260510111503 44 157 0.0 2.0 0.00 0.13 0.04 90 1012.6
20260510111003 44 157 0.0 1.0 0.00 0.13 0.04 89 1012.5
20260510110503 44 157 0.0 1.0 0.00 0.13 0.04 90 1012.5
20260510110003 44 157 1.0 1.0 0.00 0.13 0.04 91 1012.3
20260510105719 44 157 0.0 1.0 0.00 0.13 0.04 91 1012.3
20260510105217 44 157 0.0 1.0 0.00 0.13 0.04 90 1012.2
20260510104503 44 0 0.0 0.0 0.00 0.13 0.04 91 1011.9
20260510104003 44 0 0.0 0.0 0.00 0.13 0.04 91 1011.9
20260510103503 44 0 0.0 0.0 0.00 0.13 0.04 92 1011.7
20260510103217 44 0 0.0 0.0 0.00 0.13 0.04 92 1011.7
20260510102503 44 0 0.0 0.0 0.00 0.13 0.04 92 1011.6
20260510102003 44 0 0.0 0.0 0.00 0.13 0.04 92 1011.3
20260510101503 44 0 0.0 0.0 0.00 0.13 0.04 91 1011.1
20260510101003 44 0 0.0 0.0 0.01 0.13 0.04 92 1011.0
20260510100504 44 0 0.0 0.0 0.01 0.13 0.04 92 1010.9
20260510100004 44 0 0.0 0.0 0.01 0.13 0.04 92 1010.9
20260510095718 44 0 0.0 0.0 0.01 0.13 0.04 92 1010.7
20260510095217 44 0 0.0 0.0 0.01 0.13 0.04 92 1010.8
20260510094503 44 0 0.0 0.0 0.01 0.13 0.04 92 1010.7
20260510094003 44 157 0.0 1.0 0.01 0.13 0.04 92 1010.8
20260510093503 45 157 0.0 1.0 0.01 0.13 0.04 91 1010.6
20260510093003 45 157 0.0 1.0 0.02 0.13 0.04 92 1010.6
20260510092503 45 157 0.0 1.0 0.02 0.13 0.04 92 1010.6
20260510092003 45 157 0.0 1.0 0.02 0.13 0.04 92 1010.6
20260510091503 45 157 0.0 2.0 0.02 0.13 0.04 93 1010.5
20260510091003 45 157 0.0 2.0 0.01 0.12 0.03 92 1010.4
20260510090503 45 157 0.0 2.0 0.01 0.12 0.03 92 1010.5
20260510090004 46 0 0.0 0.0 0.01 0.12 0.03 92 1009.7
20260510085503 46 0 0.0 0.0 0.01 0.12 0.03 92 1009.8
20260510085217 46 157 0.0 1.0 0.01 0.12 0.03 92 1009.7
20260510084503 46 157 0.0 1.0 0.02 0.12 0.03 92 1009.9
20260510084003 46 157 0.0 1.0 0.02 0.12 0.03 92 1009.9
20260510083503 46 157 0.0 1.0 0.02 0.12 0.03 92 1010.0
20260510083003 46 157 0.0 2.0 0.01 0.11 0.02 93 1009.7
20260510082503 46 146 0.0 2.0 0.01 0.11 0.02 92 1010.0
20260510081504 46 117 0.0 1.0 0.02 0.11 0.02 92 1009.5
20260510081003 47 117 0.0 1.0 0.02 0.11 0.02 92 1009.4
20260510080503 47 110 0.0 1.0 0.02 0.11 0.02 92 1009.3
20260510080003 47 107 0.0 1.0 0.02 0.11 0.02 92 1009.7
20260510075503 47 105 0.0 1.0 0.02 0.11 0.02 92 1009.8
20260510075218 47 105 0.0 1.0 0.02 0.11 0.02 92 1009.5
20260510074503 47 105 0.0 2.0 0.01 0.10 0.01 92 1009.1
20260510074218 47 105 0.0 2.0 0.01 0.10 0.01 92 1009.1
20260510073503 47 105 0.0 1.0 0.01 0.10 0.01 91 1009.2
20260510073004 48 105 0.0 1.0 0.01 0.10 0.01 92 1009.0
20260510072503 48 96 1.0 3.0 0.01 0.10 0.01 92 1009.0
20260510072218 48 92 1.0 3.0 0.01 0.10 0.01 92 1009.0
20260510071503 48 36 0.0 1.0 0.00 0.09 0.00 93 1008.9
20260510071003 48 0 0.0 0.0 0.00 0.09 0.00 93 1009.0
20260510070717 48 0 0.0 0.0 0.00 0.09 0.00 93 1008.7
20260510070003 48 36 0.0 1.0 0.00 0.09 0.00 93 1008.3
20260510065503 48 0 0.0 0.0 0.00 0.09 0.00 93 1008.3
20260510065003 48 0 0.0 0.0 0.00 0.09 0.00 93 1008.5
20260510064504 48 0 0.0 0.0 0.00 0.09 0.00 93 1008.4
20260510064003 48 36 0.0 1.0 0.00 0.09 0.00 92 1008.3
20260510063503 49 36 0.0 1.0 0.00 0.09 0.00 93 1008.3
20260510063003 49 0 0.0 0.0 0.00 0.09 0.00 93 1008.2
20260510062503 49 36 0.0 1.0 0.00 0.09 0.00 93 1008.0
20260510062218 49 36 0.0 1.0 0.00 0.09 0.00 93 1008.1
20260510061503 50 36 0.0 1.0 0.00 0.09 0.00 94 1008.1
20260510061003 50 36 0.0 1.0 0.00 0.09 0.00 94 1008.1
20260510060503 50 36 0.0 1.0 0.00 0.09 0.00 95 1008.0
20260510060003 50 37 0.0 1.0 0.00 0.09 0.00 95 1008.2
20260510055716 50 116 0.0 4.0 0.00 0.09 0.00 95 1008.3
20260510055003 49 141 0.0 4.0 0.00 0.09 0.00 95 1008.0
20260510054503 49 0 0.0 0.0 0.00 0.09 0.00 95 1007.9
20260510054003 49 0 0.0 0.0 0.00 0.09 0.00 95 1008.0
20260510053503 49 0 0.0 0.0 0.00 0.09 0.00 95 1008.0
20260510053003 49 0 0.0 0.0 0.00 0.09 0.00 95 1007.9
20260510052503 49 0 0.0 0.0 0.00 0.09 0.00 94 1007.5
20260510052003 49 0 0.0 0.0 0.00 0.09 0.00 94 1007.6
20260510051503 49 0 0.0 0.0 0.00 0.09 0.00 94 1007.5
20260510051003 49 0 0.0 0.0 0.00 0.09 0.00 94 1007.4
20260510050503 49 0 0.0 0.0 0.00 0.09 0.00 94 1007.3
20260510050004 49 0 0.0 0.0 0.00 0.09 0.00 94 1007.2
20260510045503 49 0 0.0 0.0 0.00 0.09 0.00 94 1007.4
20260510045003 49 0 0.0 0.0 0.00 0.09 0.00 93 1007.5
20260510044503 49 0 0.0 0.0 0.00 0.09 0.00 93 1007.2
20260510044003 49 0 0.0 0.0 0.00 0.09 0.00 93 1007.2
20260510043503 49 0 0.0 0.0 0.00 0.09 0.00 93 1007.1
20260510043217 49 0 0.0 0.0 0.00 0.09 0.00 93 1007.0
20260510042718 49 0 0.0 0.0 0.00 0.09 0.00 93 1006.9
20260510042003 49 0 0.0 0.0 0.00 0.09 0.00 93 1006.5
20260510041504 49 0 0.0 0.0 0.00 0.09 0.00 93 1006.4
20260510041003 50 0 0.0 0.0 0.00 0.09 0.00 93 1006.2
20260510040504 50 0 0.0 0.0 0.00 0.09 0.00 93 1006.5
20260510040004 50 0 0.0 0.0 0.00 0.09 0.00 93 1006.4
20260510035504 50 0 0.0 0.0 0.00 0.09 0.09 93 1006.3
20260510035003 50 0 0.0 0.0 0.00 0.09 0.09 93 1006.2
20260510034503 50 200 0.0 2.0 0.00 0.09 0.09 94 1006.3
20260510034003 50 200 0.0 2.0 0.00 0.09 0.09 94 1006.4
20260510033503 50 200 0.0 1.0 0.00 0.09 0.09 94 1006.3
20260510033003 50 200 0.0 2.0 0.00 0.09 0.09 93 1006.4
20260510032718 50 200 0.0 2.0 0.00 0.09 0.09 93 1006.2
20260510032004 50 200 0.0 2.0 0.00 0.09 0.09 93 1006.2
20260510031718 50 200 0.0 2.0 0.00 0.09 0.09 93 1006.2
20260510031217 50 200 0.0 2.0 0.00 0.09 0.09 93 1006.3
20260510030503 50 200 1.0 2.0 0.00 0.09 0.09 93 1006.2
20260510030003 50 200 1.0 3.0 0.00 0.09 0.09 93 1006.3
20260510025503 50 201 0.0 3.0 0.00 0.09 0.09 93 1006.2
20260510025003 50 164 0.0 1.0 0.00 0.09 0.09 93 1006.1
20260510024503 50 164 0.0 2.0 0.00 0.09 0.09 93 1006.1
20260510024003 50 164 0.0 2.0 0.00 0.09 0.09 93 1006.0
20260510023503 50 164 0.0 2.0 0.00 0.09 0.09 93 1005.9
20260510023003 50 164 0.0 2.0 0.00 0.09 0.09 93 1005.7
20260510022503 51 163 0.0 2.0 0.00 0.09 0.09 93 1005.6
20260510022003 51 163 0.0 2.0 0.00 0.09 0.09 93 1005.6
20260510021503 51 214 0.0 2.0 0.00 0.09 0.09 93 1005.6
20260510021004 51 217 1.0 4.0 0.00 0.09 0.09 93 1005.6
20260510020717 51 218 1.0 4.0 0.00 0.09 0.09 93 1005.6
20260510020004 51 150 0.0 5.0 0.00 0.09 0.09 92 1005.6
20260510015503 51 150 0.0 5.0 0.00 0.09 0.09 92 1005.6
20260510015003 51 206 0.0 2.0 0.00 0.09 0.09 92 1005.6
20260510014717 51 206 1.0 2.0 0.00 0.09 0.09 92 1005.6
20260510014003 51 200 1.0 6.0 0.00 0.09 0.09 92 1005.5
20260510013503 51 198 1.0 6.0 0.00 0.09 0.09 92 1005.5
20260510013003 51 205 1.0 4.0 0.00 0.09 0.09 92 1005.5
20260510012504 51 206 0.0 4.0 0.00 0.09 0.09 92 1005.4
20260510012004 51 209 0.0 1.0 0.00 0.09 0.09 92 1005.4
20260510011504 51 213 0.0 2.0 0.00 0.09 0.09 92 1005.4
20260510011003 51 218 0.0 2.0 0.00 0.09 0.09 92 1005.3
20260510010503 51 223 0.0 4.0 0.00 0.09 0.09 92 1005.3
20260510010004 51 231 0.0 4.0 0.00 0.09 0.09 92 1005.1
20260510005503 51 244 0.0 2.0 0.00 0.09 0.09 92 1004.8
20260510005003 51 244 0.0 2.0 0.01 0.09 0.09 91 1004.5
20260510004503 51 245 1.0 3.0 0.01 0.09 0.09 91 1004.6
20260510004003 51 247 1.0 3.0 0.02 0.09 0.09 91 1004.5
20260510003717 51 240 1.0 5.0 0.02 0.09 0.09 91 1004.5
20260510003004 51 211 1.0 5.0 0.04 0.09 0.09 91 1004.6
20260510002504 51 178 1.0 3.0 0.05 0.09 0.09 91 1004.6
20260510002217 51 183 1.0 3.0 0.05 0.09 0.09 91 1004.7
20260510001503 51 211 1.0 7.0 0.07 0.09 0.09 91 1004.7
20260510001003 51 228 1.0 7.0 0.08 0.09 0.09 91 1004.8
20260510000503 51 230 1.0 3.0 0.09 0.09 0.09 91 1004.6
20260510000004 51 207 1.0 3.0 0.09 0.09 0.09 91 1004.5
20260509235718 52 201 1.0 6.0 0.09 0.09 0.09 91 1004.1
20260509235003 52 198 1.0 6.0 0.08 0.08 0.08 90 1004.6
20260509234503 52 219 1.0 3.0 0.08 0.08 0.08 90 1004.8
20260509234217 52 234 2.0 6.0 0.07 0.07 0.07 89 1004.9
20260509233718 52 242 2.0 6.0 0.07 0.07 0.07 88 1005.3
20260509233003 53 242 2.0 7.0 0.05 0.05 0.05 88 1005.0
20260509232503 53 243 2.0 7.0 0.04 0.04 0.04 87 1005.2
20260509232004 54 248 3.0 8.0 0.04 0.04 0.04 86 1005.0
20260509231503 55 257 4.0 10.0 0.02 0.02 0.02 84 1005.0
20260509231217 56 251 5.0 14.0 0.01 0.01 0.01 81 1005.1
20260509230503 60 224 4.0 14.0 0.00 0.00 0.00 76 1004.4
20260509230004 61 211 2.0 10.0 0.00 0.00 0.00 78 1003.2
20260509225503 62 215 1.0 3.0 0.00 0.00 0.00 75 1002.9
20260509225003 62 215 0.0 2.0 0.00 0.00 0.00 74 1002.5
20260509224503 62 215 0.0 3.0 0.00 0.00 0.00 73 1002.5
20260509224217 62 215 0.0 3.0 0.00 0.00 0.00 72 1002.4
20260509223503 62 215 0.0 2.0 0.00 0.00 0.00 73 1002.2
20260509223003 62 215 0.0 2.0 0.00 0.00 0.00 73 1002.2
20260509222503 62 215 0.0 2.0 0.00 0.00 0.00 72 1002.2
20260509222003 62 215 0.0 2.0 0.00 0.00 0.00 75 1002.4
20260509221503 62 215 1.0 2.0 0.00 0.00 0.00 73 1002.4
20260509221003 62 215 0.0 2.0 0.00 0.00 0.00 73 1002.3
20260509220503 63 215 0.0 2.0 0.00 0.00 0.00 73 1002.8
20260509220216 63 204 1.0 3.0 0.00 0.00 0.00 72 1002.9
20260509215503 63 208 1.0 3.0 0.00 0.00 0.00 71 1002.8
20260509215217 63 216 1.0 3.0 0.00 0.00 0.00 69 1002.6
20260509214503 63 217 1.0 5.0 0.00 0.00 0.00 72 1002.7
20260509214003 63 218 1.0 5.0 0.00 0.00 0.00 70 1002.8
20260509213503 62 257 0.0 1.0 0.00 0.00 0.00 70 1002.8
20260509213003 63 257 1.0 3.0 0.00 0.00 0.00 70 1002.7
20260509212503 63 257 1.0 3.0 0.00 0.00 0.00 71 1003.1
20260509212003 63 257 1.0 3.0 0.00 0.00 0.00 70 1003.2
20260509211503 63 257 1.0 3.0 0.00 0.00 0.00 69 1003.2
20260509211003 63 257 1.0 3.0 0.00 0.00 0.00 68 1003.1
20260509210503 63 257 1.0 3.0 0.00 0.00 0.00 69 1003.0
20260509210218 63 257 1.0 3.0 0.00 0.00 0.00 67 1002.9
20260509205504 64 232 2.0 5.0 0.00 0.00 0.00 70 1003.1
20260509205003 63 200 2.0 5.0 0.00 0.00 0.00 69 1003.1
20260509204503 63 220 2.0 5.0 0.00 0.00 0.00 68 1003.0
20260509204003 63 233 2.0 4.0 0.00 0.00 0.00 67 1003.1
20260509203503 64 225 2.0 3.0 0.00 0.00 0.00 66 1003.2
20260509203003 64 226 2.0 4.0 0.00 0.00 0.00 69 1003.1
20260509202503 65 239 2.0 4.0 0.00 0.00 0.00 66 1003.0
20260509202003 65 231 2.0 4.0 0.00 0.00 0.00 63 1003.0
20260509201503 66 219 2.0 9.0 0.00 0.00 0.00 65 1003.1
20260509201218 66 227 2.0 9.0 0.00 0.00 0.00 63 1003.0
20260509200503 66 242 3.0 7.0 0.00 0.00 0.00 64 1003.0
20260509200003 66 231 3.0 9.0 0.00 0.00 0.00 65 1003.1
20260509195503 66 217 2.0 9.0 0.00 0.00 0.00 63 1003.1
20260509195005 66 221 3.0 12.0 0.00 0.00 0.00 66 1003.0
20260509194503 66 209 3.0 12.0 0.00 0.00 0.00 63 1003.1
20260509194003 66 212 2.0 5.0 0.00 0.00 0.00 65 1003.4
20260509193503 66 227 3.0 9.0 0.00 0.00 0.00 64 1003.7
20260509193003 66 211 4.0 9.0 0.00 0.00 0.00 64 1003.7
20260509192503 66 201 3.0 8.0 0.00 0.00 0.00 65 1003.6
20260509192003 66 225 2.0 6.0 0.00 0.00 0.00 66 1003.9
20260509191716 66 221 3.0 8.0 0.00 0.00 0.00 67 1004.0
20260509191003 66 211 2.0 8.0 0.00 0.00 0.00 63 1004.1
20260509190503 66 227 2.0 5.0 0.00 0.00 0.00 67 1004.2
20260509190004 65 234 2.0 5.0 0.00 0.00 0.00 66 1004.3
20260509185503 65 239 2.0 6.0 0.00 0.00 0.00 66 1004.3
20260509185003 65 233 3.0 7.0 0.00 0.00 0.00 63 1004.3
20260509184503 65 232 3.0 7.0 0.00 0.00 0.00 66 1004.2
20260509184003 65 226 3.0 5.0 0.00 0.00 0.00 65 1004.2
20260509183718 66 223 3.0 5.0 0.00 0.00 0.00 66 1004.3
20260509183003 66 236 3.0 5.0 0.00 0.00 0.00 64 1004.3
20260509182503 66 221 2.0 10.0 0.00 0.00 0.00 67 1004.2
20260509182217 66 210 3.0 10.0 0.00 0.00 0.00 65 1004.2
20260509181503 66 207 3.0 9.0 0.00 0.00 0.00 63 1004.2
20260509181003 65 220 3.0 9.0 0.00 0.00 0.00 62 1004.3
20260509180503 65 228 3.0 6.0 0.00 0.00 0.00 65 1004.4
20260509180217 65 220 2.0 6.0 0.00 0.00 0.00 61 1004.3
20260509175503 65 222 2.0 5.0 0.00 0.00 0.00 61 1004.4
20260509175003 64 246 2.0 6.0 0.00 0.00 0.00 64 1004.6
20260509174503 64 249 2.0 6.0 0.00 0.00 0.00 65 1004.9
20260509174217 64 243 2.0 5.0 0.00 0.00 0.00 66 1004.9
20260509173503 64 249 2.0 4.0 0.00 0.00 0.00 64 1005.0
20260509173003 64 235 2.0 5.0 0.00 0.00 0.00 64 1005.0
20260509172503 64 215 2.0 6.0 0.00 0.00 0.00 64 1005.1
20260509172003 63 230 2.0 6.0 0.00 0.00 0.00 68 1005.1
20260509171503 64 232 2.0 5.0 0.00 0.00 0.00 64 1005.2
20260509171003 64 228 2.0 5.0 0.00 0.00 0.00 66 1005.1
20260509170504 64 235 2.0 6.0 0.00 0.00 0.00 67 1005.2
20260509170003 64 244 2.0 6.0 0.00 0.00 0.00 67 1005.2
20260509165718 64 247 2.0 6.0 0.00 0.00 0.00 66 1005.2
20260509165003 63 227 2.0 5.0 0.00 0.00 0.00 68 1005.3
20260509164503 63 234 1.0 6.0 0.00 0.00 0.00 68 1005.2
20260509164003 63 250 2.0 6.0 0.00 0.00 0.00 67 1005.5
20260509163503 63 230 2.0 8.0 0.00 0.00 0.00 66 1005.5
20260509163003 63 210 2.0 8.0 0.00 0.00 0.00 65 1005.5
20260509162503 63 209 2.0 5.0 0.00 0.00 0.00 65 1005.5
20260509162004 62 225 2.0 4.0 0.00 0.00 0.00 67 1005.5
20260509161503 62 228 2.0 4.0 0.00 0.00 0.00 68 1005.5
20260509161003 62 222 2.0 4.0 0.00 0.00 0.00 68 1005.6
20260509160503 62 224 2.0 7.0 0.00 0.00 0.00 70 1005.7
20260509160218 61 231 2.0 7.0 0.00 0.00 0.00 70 1005.7
20260509155503 61 234 2.0 7.0 0.00 0.00 0.00 72 1005.8
20260509155003 61 247 2.0 7.0 0.00 0.00 0.00 70 1005.8
20260509154717 61 253 2.0 4.0 0.00 0.00 0.00 71 1005.8
20260509154219 60 229 1.0 4.0 0.00 0.00 0.00 72 1005.9
20260509153503 60 229 1.0 3.0 0.00 0.00 0.00 73 1006.0
20260509153003 59 260 2.0 4.0 0.00 0.00 0.00 74 1006.1
20260509152503 59 258 2.0 4.0 0.00 0.00 0.00 73 1006.1
20260509152009 59 250 2.0 5.0 0.00 0.00 0.00 74 1006.2
20260509151506 58 247 2.0 5.0 0.00 0.00 0.00 75 1006.2
20260509151218 58 239 2.0 3.0 0.00 0.00 0.00 74 1006.2
20260509150503 59 216 2.0 5.0 0.00 0.00 0.00 76 1006.2
20260509150003 59 218 2.0 6.0 0.00 0.00 0.00 75 1006.2
20260509145503 59 223 2.0 6.0 0.00 0.00 0.00 75 1006.2
20260509145218 59 222 2.0 6.0 0.00 0.00 0.00 78 1006.2
20260509144503 58 205 2.0 6.0 0.00 0.00 0.00 77 1006.2
20260509144218 58 199 2.0 5.0 0.00 0.00 0.00 76 1006.2
20260509143503 58 209 2.0 5.0 0.00 0.00 0.00 77 1006.3
20260509143003 58 227 1.0 3.0 0.00 0.00 0.00 80 1006.3
20260509142503 58 232 2.0 4.0 0.00 0.00 0.00 79 1006.2
20260509142003 57 234 2.0 4.0 0.00 0.00 0.00 78 1006.3
20260509141503 57 229 2.0 4.0 0.00 0.00 0.00 81 1006.4
20260509141218 57 211 2.0 6.0 0.00 0.00 0.00 80 1006.5
20260509140503 56 206 2.0 6.0 0.00 0.00 0.00 81 1006.5
20260509140005 56 215 2.0 6.0 0.00 0.00 0.00 81 1006.5
20260509135503 56 226 2.0 6.0 0.00 0.00 0.00 81 1006.5
20260509135003 56 221 2.0 6.0 0.00 0.00 0.00 82 1006.5
20260509134503 56 225 2.0 5.0 0.00 0.00 0.00 81 1006.5
20260509134003 56 230 2.0 5.0 0.00 0.00 0.00 82 1006.5
20260509133503 56 219 2.0 4.0 0.00 0.00 0.00 83 1006.6
20260509133004 56 219 1.0 5.0 0.00 0.00 0.00 83 1006.6
20260509132718 56 214 1.0 5.0 0.00 0.00 0.00 83 1006.6
20260509132003 55 213 2.0 6.0 0.00 0.00 0.00 84 1006.6
20260509131504 55 219 2.0 6.0 0.00 0.00 0.00 84 1006.6
20260509131003 54 212 2.0 5.0 0.00 0.00 0.00 85 1006.6
20260509130503 54 215 1.0 6.0 0.00 0.00 0.00 85 1006.7
20260509130003 54 224 1.0 6.0 0.00 0.00 0.00 86 1006.7
20260509125503 53 223 1.0 10.0 0.00 0.00 0.00 86 1006.8
20260509125003 53 221 1.0 10.0 0.00 0.00 0.00 87 1006.8
20260509124503 52 209 1.0 5.0 0.00 0.00 0.00 88 1006.9
20260509124003 52 206 1.0 4.0 0.00 0.01 0.00 88 1006.9
20260509123504 51 205 1.0 4.0 0.00 0.01 0.00 89 1006.9
20260509123219 51 213 1.0 4.0 0.00 0.01 0.00 89 1006.9
20260509122718 50 212 1.0 2.0 0.00 0.01 0.00 90 1006.9
20260509122003 50 206 1.0 4.0 0.00 0.01 0.00 92 1007.0
20260509121718 49 208 1.0 4.0 0.00 0.01 0.00 93 1007.0
20260509121003 48 0 0.0 0.0 0.00 0.01 0.00 94 1007.1
20260509120718 48 159 0.0 1.0 0.00 0.01 0.00 94 1007.0
20260509120004 46 159 0.0 1.0 0.00 0.02 0.00 94 1007.0
20260509115504 46 0 0.0 0.0 0.00 0.02 0.00 94 1007.0
20260509115003 45 0 0.0 0.0 0.00 0.02 0.00 94 1007.0
20260509114504 45 0 0.0 0.0 0.00 0.02 0.00 94 1006.9
20260509114003 44 0 0.0 0.0 0.00 0.03 0.00 94 1007.0
20260509113506 44 0 0.0 0.0 0.00 0.04 0.00 93 1007.1
20260509113003 44 0 0.0 0.0 0.00 0.04 0.00 93 1007.1